QPF
0.01 0.00 0.00 0.01 0.01 0.02 0.02 0.02 0.01 0.01 0.01 0.01 0.01 0.01 0.01 0.02 0.01 0.00 0.00 0.01 0.01 0.01 0.02 0.03 0.03 0.03 0.03 0.03 0.04 0.03 0.04 0.05 0.04 0.03 0.05 0.09 0.09 0.07
0.01 0.00 0.00 0.01 0.02 0.03 0.01 0.01 0.01 0.01 0.01 0.01 0.01 0.01 0.02 0.03 0.01 0.00 0.00 0.00 0.00 0.00 0.01 0.02 0.02 0.02 0.02 0.01 0.02 0.02 0.02 0.03 0.03 0.04 0.04 0.04 0.05 0.05
0.00 0.00 0.01 0.02 0.03 0.02 0.01 0.00 0.00 0.01 0.01 0.02 0.02 0.01 0.03 0.03 0.01 0.01 0.00 0.00 0.00 0.00 0.00 0.00 0.01 0.01 0.01 0.01 0.01 0.02 0.02 0.02 0.02 0.02 0.03 0.03 0.06 0.10
0.01 0.01 0.01 0.01 0.02 0.02 0.01 0.00 0.00 0.00 0.01 0.02 0.01 0.01 0.02 0.02 0.01 0.01 0.01 0.00 0.00 0.00 0.00 0.00 0.00 0.00 0.00 0.00 0.00 0.01 0.02 0.02 0.03 0.03 0.02 0.02 0.04 0.09
0.01 0.01 0.01 0.01 0.01 0.01 0.01 0.00 0.00 0.01 0.01 0.01 0.01 0.01 0.01 0.01 0.00 0.00 0.00 0.00 0.00 0.00 0.00 0.00 0.00 0.00 0.00 0.00 0.00 0.00 0.01 0.01 0.02 0.03 0.02 0.02 0.02 0.04
0.00 0.00 0.00 0.00 0.00 0.01 0.00 0.00 0.00 0.00 0.01 0.01 0.00 0.01 0.01 0.00 0.00 0.00 0.00 0.00 0.00 0.00 0.00 0.00 0.00 0.00 0.00 0.00 0.00 0.00 0.00 0.00 0.01 0.01 0.02 0.02 0.02 0.02
0.00 0.00 0.00 0.00 0.00 0.00 0.00 0.00 0.00 0.00 0.01 0.02 0.00 0.01 0.00 0.00 0.00 0.00 0.00 0.00 0.00 0.00 0.00 0.00 0.00 0.00 0.00 0.00 0.00 0.00 0.00 0.00 0.00 0.00 0.01 0.01 0.02 0.03
0.00 0.00 0.00 0.00 0.00 0.00 0.00 0.00 0.00 0.00 0.01 0.01 0.00 0.00 0.00 0.00 0.00 0.00 0.00 0.00 0.00 0.00 0.00 0.00 0.00 0.00 0.00 0.00 0.00 0.00 0.00 0.00 0.00 0.00 0.00 0.00 0.01 0.01
0.00 0.00 0.00 0.00 0.00 0.00 0.00 0.00 0.00 0.00 0.01 0.01 0.01 0.00 0.00 0.00 0.00 0.00 0.00 0.00 0.00 0.00 0.00 0.00 0.00 0.00 0.00 0.00 0.00 0.00 0.00 0.00 0.00 0.00 0.00 0.00 0.00 0.00
0.00 0.00 0.00 0.00 0.00 0.00 0.00 0.00 0.00 0.00 0.01 0.01 0.01 0.01 0.01 0.00 0.00 0.00 0.00 0.00 0.00 0.00 0.00 0.00 0.00 0.00 0.00 0.00 0.00 0.00 0.00 0.00 0.00 0.00 0.00 0.00 0.00 0.00
0.00 0.00 0.00 0.00 0.00 0.00 0.00 0.00 0.00 0.01 0.01 0.01 0.01 0.01 0.01 0.00 0.00 0.00 0.00 0.00 0.00 0.00 0.00 0.00 0.00 0.00 0.00 0.00 0.00 0.00 0.00 0.00 0.00 0.00 0.00 0.00 0.00 0.00
0.00 0.00 0.00 0.00 0.00 0.00 0.00 0.00 0.00 0.00 0.01 0.01 0.01 0.01 0.01 0.01 0.00 0.00 0.00 0.00 0.00 0.00 0.00 0.00 0.00 0.00 0.00 0.00 0.00 0.00 0.00 0.00 0.00 0.00 0.00 0.00 0.00 0.00
0.00 0.00 0.00 0.00 0.00 0.00 0.00 0.00 0.00 0.00 0.01 0.01 0.00 0.00 0.01 0.00 0.00 0.00 0.00 0.00 0.00 0.00 0.00 0.00 0.00 0.00 0.00 0.00 0.00 0.00 0.00 0.00 0.00 0.00 0.00 0.00 0.00 0.01
0.00 0.00 0.00 0.00 0.00 0.00 0.00 0.00 0.00 0.00 0.00 0.01 0.01 0.00 0.00 0.00 0.00 0.00 0.00 0.00 0.00 0.00 0.00 0.00 0.00 0.00 0.00 0.00 0.00 0.00 0.00 0.00 0.00 0.00 0.00 0.00 0.00 0.00
0.00 0.00 0.00 0.00 0.00 0.00 0.00 0.00 0.00 0.00 0.00 0.00 0.01 0.01 0.00 0.00 0.00 0.01 0.00 0.00 0.00 0.00 0.00 0.00 0.00 0.00 0.00 0.00 0.00 0.00 0.00 0.00 0.00 0.00 0.00 0.00 0.00 0.00
0.01 0.00 0.00 0.00 0.00 0.00 0.00 0.00 0.00 0.01 0.01 0.00 0.00 0.01 0.01 0.00 0.01 0.01 0.01 0.00 0.00 0.00 0.00 0.00 0.00 0.00 0.00 0.00 0.00 0.00 0.00 0.00 0.01 0.01 0.01 0.01 0.01 0.01
0.01 0.00 0.01 0.00 0.00 0.00 0.00 0.01 0.01 0.01 0.02 0.01 0.01 0.00 0.01 0.01 0.01 0.01 0.01 0.01 0.00 0.00 0.00 0.00 0.00 0.00 0.00 0.00 0.00 0.00 0.00 0.00 0.00 0.00 0.00 0.01 0.01 0.01
0.04 0.03 0.03 0.02 0.01 0.01 0.01 0.01 0.01 0.01 0.02 0.02 0.01 0.01 0.01 0.01 0.01 0.01 0.01 0.01 0.00 0.00 0.00 0.00 0.00 0.00 0.00 0.00 0.00 0.00 0.00 0.00 0.00 0.00 0.00 0.00 0.00 0.00
0.03 0.03 0.03 0.02 0.02 0.01 0.01 0.02 0.02 0.01 0.02 0.02 0.01 0.01 0.01 0.02 0.02 0.01 0.01 0.01 0.01 0.00 0.00 0.00 0.00 0.00 0.01 0.00 0.00 0.00 0.00 0.00 0.00 0.00 0.00 0.01 0.00 0.00
0.02 0.02 0.03 0.02 0.01 0.01 0.01 0.02 0.03 0.02 0.01 0.02 0.02 0.02 0.02 0.01 0.01 0.01 0.01 0.01 0.01 0.00 0.00 0.00 0.00 0.00 0.01 0.01 0.00 0.00 0.00 0.00 0.01 0.01 0.01 0.00 0.00 0.00
0.01 0.01 0.02 0.02 0.01 0.01 0.01 0.01 0.02 0.02 0.02 0.02 0.02 0.01 0.01 0.01 0.01 0.01 0.01 0.01 0.00 0.01 0.00 0.00 0.00 0.00 0.00 0.00 0.00 0.00 0.00 0.00 0.01 0.01 0.01 0.01 0.01 0.00
0.01 0.00 0.01 0.01 0.01 0.00 0.01 0.01 0.01 0.01 0.01 0.01 0.01 0.01 0.01 0.01 0.00 0.01 0.01 0.01 0.01 0.01 0.01 0.00 0.00 0.00 0.01 0.01 0.01 0.00 0.00 0.00 0.01 0.01 0.01 0.01 0.01 0.01
0.00 0.00 0.00 0.01 0.02 0.01 0.00 0.00 0.00 0.00 0.00 0.01 0.01 0.01 0.01 0.01 0.01 0.01 0.01 0.01 0.01 0.01 0.01 0.01 0.01 0.01 0.01 0.02 0.02 0.01 0.01 0.01 0.01 0.01 0.01 0.01 0.01 0.01
MSLP
1021.13 1021.16 1021.23 1021.30 1021.37 1021.40 1021.37 1021.27 1021.11 1020.89 1020.62 1020.32 1020.00 1019.68 1019.36 1019.06 1018.77 1018.51 1018.28 1018.08 1017.92 1017.80 1017.72 1017.66 1017.60 1017.53 1017.43 1017.29 1017.09 1016.84 1016.56 1016.27 1015.99 1015.75 1015.56 1015.44 1015.40 1015.41
1021.27 1021.27 1021.31 1021.38 1021.44 1021.47 1021.46 1021.40 1021.27 1021.09 1020.85 1020.58 1020.27 1019.94 1019.60 1019.26 1018.92 1018.60 1018.30 1018.05 1017.84 1017.69 1017.59 1017.53 1017.49 1017.45 1017.39 1017.30 1017.15 1016.96 1016.73 1016.47 1016.22 1015.99 1015.81 1015.69 1015.62 1015.60
1021.51 1021.49 1021.52 1021.56 1021.62 1021.66 1021.66 1021.63 1021.54 1021.40 1021.20 1020.96 1020.68 1020.35 1019.99 1019.60 1019.21 1018.81 1018.43 1018.09 1017.80 1017.57 1017.41 1017.31 1017.25 1017.21 1017.17 1017.11 1017.01 1016.87 1016.70 1016.51 1016.31 1016.13 1015.98 1015.87 1015.81 1015.79
1021.91 1021.87 1021.88 1021.91 1021.95 1021.99 1022.00 1021.99 1021.93 1021.83 1021.68 1021.47 1021.21 1020.89 1020.51 1020.09 1019.64 1019.16 1018.69 1018.24 1017.85 1017.52 1017.26 1017.08 1016.96 1016.87 1016.81 1016.76 1016.68 1016.59 1016.47 1016.34 1016.20 1016.08 1015.99 1015.92 1015.89 1015.87
1022.47 1022.42 1022.41 1022.42 1022.44 1022.47 1022.48 1022.47 1022.43 1022.36 1022.23 1022.06 1021.82 1021.51 1021.13 1020.68 1020.18 1019.64 1019.08 1018.53 1018.02 1017.58 1017.21 1016.91 1016.69 1016.53 1016.42 1016.32 1016.23 1016.15 1016.05 1015.96 1015.88 1015.81 1015.77 1015.75 1015.76 1015.78
1023.19 1023.12 1023.08 1023.06 1023.06 1023.05 1023.04 1023.02 1022.98 1022.91 1022.80 1022.65 1022.42 1022.13 1021.76 1021.30 1020.77 1020.18 1019.56 1018.94 1018.33 1017.78 1017.29 1016.87 1016.54 1016.27 1016.06 1015.89 1015.74 1015.62 1015.51 1015.43 1015.36 1015.33 1015.32 1015.35 1015.40 1015.46
1023.98 1023.90 1023.83 1023.77 1023.73 1023.68 1023.63 1023.58 1023.51 1023.42 1023.31 1023.16 1022.95 1022.67 1022.31 1021.87 1021.34 1020.74 1020.09 1019.41 1018.74 1018.10 1017.51 1016.98 1016.53 1016.14 1015.81 1015.53 1015.29 1015.09 1014.93 1014.80 1014.71 1014.67 1014.67 1014.71 1014.79 1014.88
1024.78 1024.67 1024.57 1024.47 1024.37 1024.27 1024.16 1024.06 1023.95 1023.83 1023.69 1023.53 1023.33 1023.07 1022.73 1022.31 1021.81 1021.23 1020.59 1019.90 1019.20 1018.51 1017.85 1017.24 1016.67 1016.17 1015.71 1015.31 1014.95 1014.64 1014.38 1014.16 1014.01 1013.92 1013.89 1013.92 1013.99 1014.10
1025.49 1025.36 1025.22 1025.07 1024.92 1024.76 1024.59 1024.42 1024.26 1024.09 1023.93 1023.75 1023.54 1023.29 1022.98 1022.60 1022.14 1021.60 1021.00 1020.34 1019.65 1018.95 1018.25 1017.58 1016.94 1016.33 1015.76 1015.23 1014.75 1014.31 1013.92 1013.60 1013.34 1013.17 1013.06 1013.04 1013.08 1013.17
1026.07 1025.91 1025.73 1025.54 1025.34 1025.12 1024.89 1024.66 1024.44 1024.23 1024.02 1023.82 1023.61 1023.37 1023.08 1022.73 1022.32 1021.83 1021.28 1020.67 1020.02 1019.33 1018.64 1017.94 1017.25 1016.58 1015.92 1015.29 1014.69 1014.12 1013.61 1013.15 1012.78 1012.49 1012.29 1012.18 1012.15 1012.19
1026.48 1026.30 1026.09 1025.87 1025.62 1025.36 1025.08 1024.81 1024.54 1024.29 1024.05 1023.82 1023.59 1023.34 1023.06 1022.74 1022.37 1021.93 1021.43 1020.87 1020.26 1019.61 1018.94 1018.25 1017.54 1016.83 1016.12 1015.41 1014.72 1014.05 1013.42 1012.85 1012.35 1011.94 1011.63 1011.42 1011.29 1011.26
1026.74 1026.54 1026.32 1026.08 1025.81 1025.52 1025.22 1024.92 1024.62 1024.33 1024.06 1023.80 1023.55 1023.29 1023.01 1022.70 1022.33 1021.92 1021.45 1020.93 1020.36 1019.75 1019.10 1018.43 1017.74 1017.02 1016.28 1015.53 1014.78 1014.04 1013.33 1012.67 1012.06 1011.55 1011.12 1010.80 1010.58 1010.45
1026.88 1026.68 1026.47 1026.22 1025.95 1025.66 1025.35 1025.04 1024.72 1024.42 1024.13 1023.85 1023.57 1023.29 1022.98 1022.65 1022.27 1021.85 1021.38 1020.87 1020.32 1019.73 1019.11 1018.46 1017.78 1017.08 1016.35 1015.59 1014.82 1014.05 1013.29 1012.56 1011.88 1011.28 1010.76 1010.34 1010.01 1009.79
1026.96 1026.77 1026.57 1026.34 1026.09 1025.80 1025.51 1025.20 1024.89 1024.58 1024.28 1023.98 1023.67 1023.35 1023.00 1022.62 1022.21 1021.75 1021.25 1020.72 1020.16 1019.57 1018.96 1018.33 1017.67 1016.99 1016.28 1015.54 1014.78 1014.00 1013.22 1012.46 1011.74 1011.08 1010.49 1009.99 1009.58 1009.26
1027.00 1026.84 1026.66 1026.45 1026.22 1025.96 1025.69 1025.40 1025.10 1024.80 1024.49 1024.17 1023.84 1023.47 1023.07 1022.64 1022.16 1021.64 1021.09 1020.51 1019.91 1019.30 1018.68 1018.05 1017.41 1016.75 1016.06 1015.35 1014.61 1013.85 1013.08 1012.31 1011.57 1010.88 1010.24 1009.68 1009.21 1008.81
1027.04 1026.91 1026.75 1026.57 1026.36 1026.12 1025.87 1025.60 1025.32 1025.02 1024.71 1024.38 1024.01 1023.61 1023.16 1022.66 1022.11 1021.52 1020.89 1020.25 1019.60 1018.95 1018.30 1017.66 1017.02 1016.37 1015.70 1015.01 1014.30 1013.56 1012.80 1012.04 1011.30 1010.59 1009.93 1009.33 1008.81 1008.36
1027.07 1026.96 1026.82 1026.65 1026.46 1026.24 1026.00 1025.74 1025.47 1025.18 1024.87 1024.53 1024.14 1023.69 1023.19 1022.63 1022.02 1021.36 1020.67 1019.96 1019.25 1018.55 1017.86 1017.19 1016.54 1015.88 1015.22 1014.53 1013.83 1013.10 1012.35 1011.59 1010.85 1010.13 1009.45 1008.84 1008.29 1007.81
1027.08 1026.98 1026.84 1026.67 1026.48 1026.26 1026.02 1025.77 1025.50 1025.21 1024.89 1024.54 1024.13 1023.66 1023.12 1022.51 1021.84 1021.13 1020.38 1019.61 1018.85 1018.10 1017.37 1016.67 1015.98 1015.30 1014.62 1013.91 1013.19 1012.45 1011.69 1010.92 1010.16 1009.43 1008.74 1008.11 1007.55 1007.05
1027.04 1026.93 1026.78 1026.60 1026.39 1026.16 1025.91 1025.64 1025.36 1025.06 1024.74 1024.37 1023.94 1023.45 1022.88 1022.24 1021.54 1020.79 1020.00 1019.20 1018.40 1017.61 1016.84 1016.10 1015.37 1014.64 1013.91 1013.17 1012.40 1011.61 1010.81 1010.00 1009.21 1008.45 1007.75 1007.11 1006.54 1006.05
1026.93 1026.80 1026.63 1026.41 1026.17 1025.91 1025.63 1025.35 1025.05 1024.73 1024.39 1024.00 1023.56 1023.05 1022.47 1021.81 1021.10 1020.33 1019.52 1018.70 1017.88 1017.06 1016.26 1015.47 1014.69 1013.91 1013.12 1012.30 1011.46 1010.60 1009.72 1008.85 1008.01 1007.21 1006.48 1005.83 1005.26 1004.79
1026.74 1026.57 1026.36 1026.10 1025.82 1025.52 1025.21 1024.89 1024.57 1024.23 1023.86 1023.45 1022.99 1022.47 1021.88 1021.22 1020.51 1019.74 1018.93 1018.11 1017.27 1016.44 1015.61 1014.78 1013.95 1013.11 1012.23 1011.33 1010.40 1009.44 1008.48 1007.53 1006.61 1005.76 1004.99 1004.32 1003.76 1003.31
1026.46 1026.24 1025.98 1025.68 1025.36 1025.02 1024.67 1024.32 1023.96 1023.59 1023.20 1022.77 1022.29 1021.75 1021.16 1020.50 1019.79 1019.02 1018.23 1017.41 1016.58 1015.74 1014.90 1014.04 1013.15 1012.24 1011.29 1010.29 1009.26 1008.20 1007.14 1006.09 1005.10 1004.18 1003.37 1002.68 1002.12 1001.69
1026.08 1025.81 1025.49 1025.15 1024.79 1024.42 1024.04 1023.65 1023.26 1022.86 1022.44 1021.98 1021.48 1020.93 1020.33 1019.67 1018.96 1018.22 1017.44 1016.63 1015.81 1014.98 1014.12 1013.23 1012.31 1011.34 1010.31 1009.23 1008.11 1006.95 1005.79 1004.66 1003.58 1002.60 1001.74 1001.03 1000.47 1000.07
Thickness
5690 5689 5688 5687 5686 5686 5685 5682 5677 5671 5671 5675 5677 5680 5680 5679 5679 5679 5680 5679 5680 5680 5680 5681 5682 5682 5683 5683 5684 5685 5685 5686 5687 5688 5689 5690 5691 5693
5687 5686 5685 5684 5684 5684 5683 5681 5679 5675 5670 5672 5673 5676 5676 5676 5675 5675 5675 5675 5675 5675 5675 5675 5675 5676 5676 5677 5677 5677 5678 5678 5679 5680 5681 5682 5683 5685
5684 5683 5682 5682 5681 5680 5680 5678 5676 5674 5669 5669 5670 5672 5672 5672 5671 5671 5670 5670 5670 5670 5670 5670 5670 5670 5670 5670 5670 5670 5670 5670 5671 5672 5672 5673 5675 5676
5680 5679 5678 5678 5677 5676 5675 5674 5673 5672 5669 5665 5665 5666 5667 5668 5667 5666 5666 5665 5665 5664 5664 5664 5664 5664 5663 5663 5663 5663 5663 5662 5663 5663 5664 5665 5666 5667
5676 5675 5674 5674 5672 5671 5671 5670 5669 5669 5666 5663 5661 5661 5661 5662 5661 5661 5661 5660 5660 5659 5659 5658 5658 5658 5657 5657 5656 5656 5655 5655 5655 5655 5655 5656 5656 5657
5672 5671 5671 5670 5669 5668 5667 5665 5664 5662 5660 5658 5656 5655 5654 5655 5654 5652 5652 5653 5653 5653 5653 5652 5652 5651 5651 5650 5650 5649 5648 5648 5647 5647 5647 5647 5647 5647
5666 5666 5666 5666 5665 5664 5663 5660 5659 5657 5654 5652 5650 5648 5647 5646 5645 5645 5644 5645 5645 5646 5645 5645 5645 5644 5644 5644 5643 5642 5641 5640 5640 5639 5639 5638 5638 5637
5661 5660 5660 5660 5660 5659 5659 5657 5656 5652 5649 5646 5644 5642 5641 5640 5640 5639 5637 5636 5636 5638 5636 5637 5637 5636 5636 5636 5635 5634 5633 5632 5631 5630 5629 5628 5628 5627
5655 5654 5654 5654 5653 5652 5651 5651 5649 5648 5646 5643 5639 5637 5636 5636 5634 5633 5630 5628 5628 5629 5628 5628 5628 5627 5628 5627 5626 5625 5624 5623 5622 5621 5620 5619 5618 5617
5650 5649 5648 5647 5647 5645 5644 5642 5641 5640 5639 5638 5636 5634 5633 5631 5629 5627 5625 5623 5621 5621 5619 5617 5619 5618 5620 5618 5617 5615 5614 5613 5612 5611 5609 5608 5607 5606
5646 5645 5643 5642 5642 5640 5637 5635 5633 5633 5632 5631 5629 5628 5626 5624 5622 5619 5616 5613 5611 5611 5610 5607 5608 5608 5608 5608 5607 5605 5603 5602 5600 5599 5598 5597 5596 5595
5640 5639 5639 5637 5636 5634 5631 5628 5625 5624 5624 5623 5621 5619 5617 5615 5613 5611 5608 5603 5600 5599 5600 5597 5595 5594 5595 5597 5596 5594 5592 5590 5589 5588 5586 5585 5584 5583
5634 5632 5632 5631 5629 5627 5625 5622 5620 5618 5615 5613 5611 5609 5607 5605 5603 5601 5598 5595 5591 5589 5590 5586 5584 5581 5578 5581 5583 5582 5580 5579 5577 5576 5575 5573 5572 5570
5629 5628 5626 5625 5622 5620 5617 5616 5613 5610 5606 5603 5600 5598 5596 5594 5593 5591 5588 5586 5584 5581 5580 5576 5572 5569 5566 5566 5567 5569 5568 5566 5564 5563 5562 5561 5560 5558
5624 5622 5620 5617 5614 5611 5609 5607 5603 5599 5596 5592 5589 5588 5586 5584 5582 5580 5577 5575 5573 5570 5567 5564 5561 5558 5555 5553 5554 5554 5553 5553 5551 5549 5549 5547 5546 5545
5617 5614 5612 5608 5605 5602 5599 5596 5593 5589 5586 5582 5580 5577 5575 5572 5569 5566 5563 5561 5558 5557 5555 5552 5549 5546 5543 5542 5540 5539 5537 5536 5537 5535 5534 5534 5533 5531
5609 5605 5601 5597 5593 5590 5588 5585 5582 5579 5575 5572 5568 5565 5562 5559 5556 5553 5550 5546 5543 5542 5542 5540 5537 5534 5531 5529 5527 5526 5524 5522 5521 5520 5519 5520 5520 5518
5601 5595 5591 5587 5584 5581 5577 5574 5571 5567 5564 5561 5557 5554 5551 5548 5545 5541 5537 5533 5530 5528 5527 5526 5523 5521 5519 5517 5515 5512 5510 5509 5508 5506 5504 5503 5506 5506
5592 5587 5583 5579 5575 5572 5568 5564 5561 5558 5554 5551 5547 5543 5540 5536 5533 5529 5525 5521 5518 5516 5514 5511 5507 5502 5501 5504 5505 5500 5496 5496 5494 5492 5490 5488 5490 5493
5582 5579 5574 5570 5566 5562 5559 5555 5551 5548 5544 5540 5536 5532 5528 5524 5521 5517 5513 5509 5506 5503 5501 5497 5493 5489 5486 5487 5490 5489 5484 5481 5479 5478 5478 5477 5477 5478
5574 5570 5566 5562 5558 5554 5550 5546 5542 5538 5534 5529 5526 5522 5517 5512 5509 5505 5501 5498 5494 5490 5487 5485 5482 5478 5475 5472 5473 5475 5473 5468 5465 5463 5462 5461 5461 5462
5566 5562 5558 5554 5549 5545 5541 5537 5532 5528 5523 5519 5515 5511 5506 5502 5498 5494 5490 5486 5482 5478 5476 5473 5470 5466 5461 5459 5459 5460 5459 5457 5453 5450 5448 5446 5443 5445
5558 5553 5549 5545 5540 5536 5531 5527 5523 5518 5514 5509 5505 5500 5495 5491 5487 5482 5478 5474 5470 5466 5463 5460 5456 5452 5449 5446 5444 5444 5444 5442 5441 5440 5439 5436 5433 5434